Weather History for The Dalles, OR

Change the Weather History Date:

Sunday, June 16, 2013

  Actual Average Record
Temperature  
Mean Temperature 72 °F -  
Max Temperature 82 °F 79 °F 106 °F (1961)
Min Temperature 63 °F 54 °F 44 °F (1955)
Cooling Degree Days 8    
Growing Degree Days 22 (Base 50)    
Moisture  
Dew Point 51 °F    
Average Humidity 50    
Maximum Humidity 65    
Minimum Humidity 35    
Precipitation  
Precipitation 0.03 in - - ()
Sea Level Pressure  
Sea Level Pressure 29.96 in    
Wind  
Wind Speed 15 mph (NW)    
Max Wind Speed 25 mph    
Max Gust Speed 32 mph    
Visibility 10 miles    
Events Rain , Thunderstorm    
Averages and records for this station are not official NWS values.
T = Trace of Precipitation, MM = Missing Value Source: NWS Daily Summary

Daily Weather History Graph

Daily Weather History Graph

Search for Another Location

Airport:

Trip Planner

Search our weather history database for the weather conditions in past years. The results will help you decide how hot, cold, wet, or windy it might be!

Date:

Astronomy

Jun. 16, 2013 Rise Set
Actual Time 5:14 AM PDT 8:56 PM PDT
Civil Twilight 4:36 AM PDT 9:34 PM PDT
Nautical Twilight 3:45 AM PDT 10:25 PM PDT
Astronomical Twilight 2:36 AM PDT 11:35 PM PDT
Moon 1:18 PM PDT (6/16) 12:43 AM PDT (6/16)
Length of Visible Light 16h 57m
Length of Day
15h 41m
Waxing Crescent, 51% of the Moon is Illuminated
Jun 16
Waxing Crescent
Jun 23
Full
Jun 29
Last Quarter
Jul 8
New
Jul 15
First Quarter

Hourly Weather History & Observations

Time (PDT) Temp. Dew Point Humidity Pressure Visibility Wind Dir Wind Speed Gust Speed Precip Events Conditions
12:53 AM 70.0 °F 52.0 °F 53% 29.93 in 10.0 mi NW 12.7 mph - N/A   Clear
1:53 AM 69.1 °F 52.0 °F 54% 29.93 in 10.0 mi NNW 12.7 mph - N/A   Clear
2:53 AM 66.9 °F 51.1 °F 57% 29.94 in 10.0 mi NW 16.1 mph 24.2 mph N/A   Partly Cloudy
3:53 AM 66.0 °F 51.1 °F 59% 29.94 in 10.0 mi Calm Calm - N/A   Clear
4:53 AM 64.0 °F 51.1 °F 63% 29.95 in 10.0 mi NW 6.9 mph - N/A   Clear
5:53 AM 63.0 °F 51.1 °F 65% 29.96 in 10.0 mi NW 13.8 mph 21.9 mph N/A   Partly Cloudy
6:53 AM 64.0 °F 52.0 °F 65% 29.96 in 10.0 mi NNW 18.4 mph 24.2 mph N/A   Clear
7:53 AM 66.0 °F 52.0 °F 60% 29.97 in 10.0 mi NNW 17.3 mph 25.3 mph N/A   Clear
8:53 AM 70.0 °F 52.0 °F 53% 29.97 in 10.0 mi NNW 18.4 mph - N/A   Clear
9:53 AM 69.1 °F 52.0 °F 54% 29.96 in 10.0 mi NNW 21.9 mph 27.6 mph N/A   Clear
10:53 AM 73.0 °F 52.0 °F 48% 29.96 in 10.0 mi NNW 20.7 mph 29.9 mph N/A   Clear
11:53 AM 77.0 °F 52.0 °F 42% 29.95 in 10.0 mi NNW 19.6 mph 25.3 mph N/A   Clear
12:53 PM 79.0 °F 53.1 °F 40% 29.92 in 10.0 mi NNW 21.9 mph 26.5 mph N/A   Clear
1:53 PM 82.0 °F 52.0 °F 35% 29.91 in 10.0 mi NNW 20.7 mph 28.8 mph N/A   Clear
2:53 PM 81.0 °F 51.1 °F 35% 29.91 in 10.0 mi NNW 21.9 mph 28.8 mph N/A   Clear
3:53 PM 78.1 °F 50.0 °F 37% 29.92 in 10.0 mi NNW 17.3 mph 27.6 mph N/A   Clear
4:53 PM 77.0 °F 50.0 °F 39% 29.93 in 10.0 mi NNW 21.9 mph 28.8 mph N/A   Clear
5:53 PM 75.0 °F 48.9 °F 40% 29.95 in 10.0 mi NW 19.6 mph 29.9 mph N/A   Clear
6:13 PM 75.2 °F 48.2 °F 38% 29.98 in 10.0 mi NW 13.8 mph 27.6 mph N/A Thunderstorm Thunderstorm
6:36 PM 69.8 °F 51.8 °F 53% 29.99 in 8.0 mi NW 17.3 mph 23.0 mph 0.03 in Rain Light Rain
6:53 PM 69.1 °F 51.1 °F 53% 29.98 in 10.0 mi NW 25.3 mph 32.2 mph 0.03 in Rain Light Rain
7:53 PM 72.0 °F 45.0 °F 38% 29.99 in 10.0 mi NW 19.6 mph 29.9 mph 0.00 in   Mostly Cloudy
8:53 PM 71.1 °F 48.0 °F 44% 30.01 in 10.0 mi WNW 12.7 mph 26.5 mph N/A   Mostly Cloudy
9:53 PM 69.1 °F 50.0 °F 51% 30.02 in 10.0 mi West 11.5 mph - 0.00 in   Scattered Clouds
10:53 PM 66.0 °F 50.0 °F 56% 30.03 in 10.0 mi NW 9.2 mph - N/A   Clear
11:53 PM 64.9 °F 52.0 °F 63% 30.04 in 10.0 mi WNW 8.1 mph - N/A   Clear